Honolulu, HI

7:50 PM HST on October 21, 2017 (GMT -1000)
Honolulu International

Weather History for PHNL - May, 2013

Change the Weather History Date:

Sunday, May 26, 2013

  Actual Average Record
Temperature  
Mean Temperature 79 °F 79 °F  
Max Temperature 86 °F 86 °F 90 °F (1992)
Min Temperature 72 °F 72 °F 65 °F (1972)
Degree Days  
Heating Degree Days 0 0  
Month to date heating degree days 0 0  
Since 1 July heating degree days 0 0  
Cooling Degree Days 14 14  
Month to date cooling degree days 309 326  
Year to date cooling degree days 1397 1433  
Growing Degree Days 29 (Base 50)    
Moisture  
Dew Point 64 °F    
Average Humidity 64    
Maximum Humidity 79    
Minimum Humidity 48    
Precipitation  
Precipitation T in 0.02 in 1.22 in (2016)
Month to date precipitation 0.41 0.55  
Year to date precipitation 8.18 7.50  
Snow  
Snow 0.00 in - - ()
Month to date snowfall 0.0  
Since 1 July snowfall 0.0  
Snow Depth 0.00 in    
Sea Level Pressure  
Sea Level Pressure 30.07 in    
Wind  
Wind Speed 14 mph (ENE)    
Max Wind Speed 22 mph    
Max Gust Speed 29 mph    
Visibility 10 miles    
Events      
T = Trace of Precipitation, MM = Missing Value Source: NWS Daily Summary

Daily Weather History Graph

Daily Weather History Graph

Search for Another Location

Airport or City:

Trip Planner

Search our weather history database for the weather conditions in past years. The results will help you decide how hot, cold, wet, or windy it might be!

Date:

Astronomy

May. 26, 2013 Rise Set
Actual Time 5:49 AM HST 7:07 PM HST
Civil Twilight 5:25 AM HST 7:32 PM HST
Nautical Twilight 4:56 AM HST 8:01 PM HST
Astronomical Twilight 4:26 AM HST 8:31 PM HST
Moon 9:09 PM HST (5/26) 7:29 AM HST (5/26)
Length of Visible Light 14h 06m
Length of Day
13h 17m
Waning Gibbous, 95% of the Moon is Illuminated
May 26
Waning Gibbous
May 31
Last Quarter
Jun 8
New
Jun 16
First Quarter
Jun 23
Full

Hourly Weather History & Observations

Time (HST) Temp. Heat Index Dew Point Humidity Pressure Visibility Wind Dir Wind Speed Gust Speed Precip Events Conditions
12:53 AM 73.9 °F - 66.0 °F 76% 30.08 in 10.0 mi ENE 12.7 mph - N/A   Mostly Cloudy
1:53 AM 73.9 °F - 64.9 °F 73% 30.06 in 10.0 mi ENE 12.7 mph - N/A   Mostly Cloudy
2:53 AM 73.9 °F - 63.0 °F 68% 30.05 in 10.0 mi NE 11.5 mph - 0.00 in   Scattered Clouds
3:53 AM 73.9 °F - 62.1 °F 66% 30.05 in 10.0 mi ENE 18.4 mph 24.2 mph N/A   Scattered Clouds
4:53 AM 73.0 °F - 62.1 °F 68% 30.05 in 10.0 mi ENE 12.7 mph - N/A   Scattered Clouds
5:53 AM 73.0 °F - 63.0 °F 71% 30.06 in 10.0 mi NE 9.2 mph - N/A   Scattered Clouds
6:53 AM 73.9 °F - 64.0 °F 71% 30.08 in 10.0 mi NNE 4.6 mph - N/A   Scattered Clouds
7:53 AM 77.0 °F - 63.0 °F 62% 30.09 in 10.0 mi ENE 18.4 mph 23.0 mph N/A   Scattered Clouds
8:53 AM 80.1 °F 81.2 °F 62.1 °F 54% 30.09 in 10.0 mi ENE 15.0 mph 18.4 mph N/A   Scattered Clouds
9:53 AM 81.0 °F 81.7 °F 61.0 °F 50% 30.09 in 10.0 mi ENE 15.0 mph - N/A   Scattered Clouds
10:53 AM 82.0 °F 83.1 °F 63.0 °F 52% 30.08 in 10.0 mi ENE 16.1 mph 23.0 mph N/A   Scattered Clouds
11:53 AM 82.9 °F 84.0 °F 63.0 °F 51% 30.07 in 10.0 mi ENE 19.6 mph 26.5 mph N/A   Scattered Clouds
12:53 PM 82.9 °F 83.7 °F 62.1 °F 49% 30.06 in 10.0 mi ENE 12.7 mph 24.2 mph N/A   Scattered Clouds
1:53 PM 84.9 °F 85.9 °F 63.0 °F 48% 30.04 in 10.0 mi ENE 13.8 mph 24.2 mph N/A   Scattered Clouds
2:53 PM 82.9 °F 83.7 °F 62.1 °F 49% 30.03 in 10.0 mi NNE 17.3 mph 27.6 mph N/A   Scattered Clouds
3:53 PM 82.9 °F 84.0 °F 63.0 °F 51% 30.02 in 10.0 mi NE 16.1 mph 25.3 mph N/A   Partly Cloudy
4:53 PM 81.0 °F 82.5 °F 64.0 °F 56% 30.02 in 10.0 mi NNE 15.0 mph 24.2 mph N/A   Partly Cloudy
5:53 PM 80.1 °F 81.7 °F 64.0 °F 58% 30.03 in 10.0 mi ENE 17.3 mph 24.2 mph N/A   Partly Cloudy
6:53 PM 77.0 °F - 64.9 °F 66% 30.04 in 10.0 mi East 13.8 mph 21.9 mph N/A   Partly Cloudy
7:53 PM 75.9 °F - 66.0 °F 71% 30.07 in 10.0 mi East 12.7 mph - N/A   Partly Cloudy
8:53 PM 75.9 °F - 66.0 °F 71% 30.09 in 10.0 mi ENE 10.4 mph - N/A   Partly Cloudy
9:53 PM 75.9 °F - 64.9 °F 69% 30.11 in 10.0 mi ENE 10.4 mph - N/A   Partly Cloudy
10:53 PM 75.0 °F - 64.0 °F 69% 30.12 in 10.0 mi ENE 11.5 mph - N/A   Partly Cloudy
11:53 PM 75.0 °F - 64.0 °F 69% 30.11 in 10.0 mi ENE 11.5 mph - N/A   Partly Cloudy